Time,TemperatureF,DewpointF,PressureIn,WindDirection,WindDirectionDegrees,WindSpeedMPH,WindSpeedGustMPH,Humidity,HourlyPrecipIn,Conditions,Clouds,dailyrainin,SoftwareType,DateUTC
2013-01-10 00:00:00,25.3,20.9,30.33,SSE,157,3.0,4.0,83,0.00,,,0.00,Wunderground v.1.15,2013-01-10 06:00:00,
2013-01-10 00:10:00,24.7,20.8,30.33,SSE,157,3.0,3.0,85,0.00,,,0.00,Wunderground v.1.15,2013-01-10 06:10:00,
2013-01-10 00:15:00,24.7,20.6,30.32,SSE,157,3.0,3.0,84,0.00,,,0.00,Wunderground v.1.15,2013-01-10 06:15:00,
2013-01-10 00:25:00,24.1,20.2,30.32,SSE,157,2.0,2.0,85,0.00,,,0.00,Wunderground v.1.15,2013-01-10 06:25:00,
2013-01-10 00:30:00,23.8,19.9,30.32,SSE,157,2.0,2.0,85,0.00,,,0.00,Wunderground v.1.15,2013-01-10 06:30:00,
2013-01-10 00:35:00,23.6,19.8,30.32,SSE,157,1.0,2.0,85,0.00,,,0.00,Wunderground v.1.15,2013-01-10 06:35:00,
2013-01-10 00:40:00,23.6,20.0,30.32,SSE,157,0.0,0.0,86,0.00,,,0.00,Wunderground v.1.15,2013-01-10 06:40:00,
2013-01-10 00:45:00,23.5,19.9,30.32,SSE,157,0.0,0.0,86,0.00,,,0.00,Wunderground v.1.15,2013-01-10 06:45:00,
2013-01-10 00:50:00,23.2,19.6,30.32,SSE,157,0.0,0.0,86,0.00,,,0.00,Wunderground v.1.15,2013-01-10 06:50:00,
2013-01-10 00:55:00,22.7,19.1,30.32,SSE,157,0.0,0.0,86,0.00,,,0.00,Wunderground v.1.15,2013-01-10 06:55:00,
2013-01-10 01:00:00,22.2,18.7,30.33,SSE,157,0.0,0.0,86,0.00,,,0.00,Wunderground v.1.15,2013-01-10 07:00:00,
2013-01-10 01:10:00,22.1,19.1,30.33,SSE,157,0.0,0.0,88,0.00,,,0.00,Wunderground v.1.15,2013-01-10 07:10:00,
2013-01-10 01:15:00,22.9,20.1,30.31,SSE,157,0.0,0.0,89,0.00,,,0.00,Wunderground v.1.15,2013-01-10 07:15:00,
2013-01-10 01:20:00,23.3,20.5,30.31,SSE,157,0.0,0.0,89,0.00,,,0.00,Wunderground v.1.15,2013-01-10 07:20:00,
2013-01-10 01:30:00,23.5,20.7,30.30,SSE,157,0.0,0.0,89,0.00,,,0.00,Wunderground v.1.15,2013-01-10 07:30:00,
2013-01-10 01:35:00,23.3,20.5,30.30,SSE,157,0.0,0.0,89,0.00,,,0.00,Wunderground v.1.15,2013-01-10 07:35:00,
2013-01-10 01:45:00,23.3,20.8,30.31,South,177,1.0,3.0,90,0.00,,,0.00,Wunderground v.1.15,2013-01-10 07:45:00,
2013-01-10 01:50:00,22.9,20.1,30.31,South,179,2.0,3.0,89,0.00,,,0.00,Wunderground v.1.15,2013-01-10 07:50:00,
2013-01-10 01:55:00,22.4,19.9,30.31,South,179,3.0,3.0,90,0.00,,,0.00,Wunderground v.1.15,2013-01-10 07:55:00,
2013-01-10 02:00:00,22.2,19.7,30.31,South,179,2.0,2.0,90,0.00,,,0.00,Wunderground v.1.15,2013-01-10 08:00:00,
2013-01-10 02:10:00,22.7,20.5,30.31,South,179,0.0,0.0,91,0.00,,,0.00,Wunderground v.1.15,2013-01-10 08:10:00,
2013-01-10 02:20:00,22.9,20.7,30.30,South,179,0.0,0.0,91,0.00,,,0.00,Wunderground v.1.15,2013-01-10 08:20:00,
2013-01-10 02:25:00,22.5,20.3,30.30,South,179,0.0,0.0,91,0.00,,,0.00,Wunderground v.1.15,2013-01-10 08:25:00,
2013-01-10 02:30:00,22.9,20.9,30.29,South,179,0.0,0.0,92,0.00,,,0.00,Wunderground v.1.15,2013-01-10 08:30:00,
2013-01-10 02:35:00,23.6,21.9,30.29,South,179,0.0,0.0,93,0.00,,,0.00,Wunderground v.1.15,2013-01-10 08:35:00,
2013-01-10 02:40:00,23.6,21.6,30.29,South,179,0.0,0.0,92,0.00,,,0.00,Wunderground v.1.15,2013-01-10 08:40:00,
2013-01-10 02:45:00,23.5,21.3,30.28,South,179,0.0,0.0,91,0.00,,,0.00,Wunderground v.1.15,2013-01-10 08:45:00,
2013-01-10 02:50:00,23.5,21.5,30.28,South,179,0.0,0.0,92,0.00,,,0.00,Wunderground v.1.15,2013-01-10 08:50:00,
2013-01-10 02:55:00,24.2,22.5,30.28,South,179,0.0,0.0,93,0.00,,,0.00,Wunderground v.1.15,2013-01-10 08:55:00,
2013-01-10 03:05:00,25.1,23.4,30.27,South,179,0.0,0.0,93,0.00,,,0.00,Wunderground v.1.15,2013-01-10 09:05:00,
2013-01-10 03:10:00,26.1,24.6,30.27,South,179,0.0,0.0,94,0.00,,,0.00,Wunderground v.1.15,2013-01-10 09:10:00,
2013-01-10 03:15:00,26.7,25.2,30.23,South,179,0.0,0.0,94,0.00,,,0.00,Wunderground v.1.15,2013-01-10 09:15:00,
2013-01-10 03:20:00,27.0,25.2,30.23,South,179,0.0,0.0,93,0.00,,,0.00,Wunderground v.1.15,2013-01-10 09:20:00,
2013-01-10 03:25:00,27.0,25.0,30.23,South,179,0.0,0.0,92,0.00,,,0.00,Wunderground v.1.15,2013-01-10 09:25:00,
2013-01-10 06:40:00,33.8,28.0,30.08,SE,127,3.0,3.0,79,0.00,,,0.00,Wunderground v.1.15,2013-01-10 12:40:00,
2013-01-10 06:45:00,33.8,28.0,30.08,SE,127,3.0,3.0,79,0.00,,,0.00,Wunderground v.1.15,2013-01-10 12:45:00,
2013-01-10 06:50:00,33.8,28.0,30.08,SE,127,3.0,3.0,79,0.00,,,0.00,Wunderground v.1.15,2013-01-10 12:50:00,
2013-01-10 06:55:00,33.8,28.0,30.08,SE,127,3.0,4.0,79,0.00,,,0.00,Wunderground v.1.15,2013-01-10 12:55:00,
2013-01-10 07:05:00,33.5,27.7,30.08,SE,127,3.0,4.0,79,0.00,,,0.00,Wunderground v.1.15,2013-01-10 13:05:00,
2013-01-10 07:10:00,33.1,27.6,30.08,SE,127,3.0,4.0,80,0.00,,,0.00,Wunderground v.1.15,2013-01-10 13:10:00,
2013-01-10 07:15:00,32.9,27.4,30.08,SE,127,3.0,4.0,80,0.00,,,0.00,Wunderground v.1.15,2013-01-10 13:15:00,
2013-01-10 07:20:00,32.8,27.6,30.08,SE,127,3.0,3.0,81,0.00,,,0.00,Wunderground v.1.15,2013-01-10 13:20:00,
2013-01-10 07:25:00,32.7,27.8,30.08,SE,127,4.0,5.0,82,0.00,,,0.00,Wunderground v.1.15,2013-01-10 13:25:00,
2013-01-10 07:30:00,32.9,28.0,30.07,SE,127,4.0,5.0,82,0.00,,,0.00,Wunderground v.1.15,2013-01-10 13:30:00,
2013-01-10 07:35:00,33.2,28.0,30.07,SE,124,5.0,5.0,81,0.00,,,0.00,Wunderground v.1.15,2013-01-10 13:35:00,
2013-01-10 07:45:00,33.8,28.3,30.06,SE,124,5.0,5.0,80,0.00,,,0.00,Wunderground v.1.15,2013-01-10 13:45:00,
2013-01-10 07:50:00,34.0,28.5,30.06,SE,124,4.0,5.0,80,0.00,,,0.00,Wunderground v.1.15,2013-01-10 13:50:00,
2013-01-10 07:55:00,34.1,28.3,30.06,ESE,123,4.0,5.0,79,0.00,,,0.00,Wunderground v.1.15,2013-01-10 13:55:00,
2013-01-10 08:00:00,34.3,28.5,30.05,ESE,123,4.0,4.0,79,0.00,,,0.00,Wunderground v.1.15,2013-01-10 14:00:00,
2013-01-10 08:10:00,34.3,28.5,30.05,ESE,123,3.0,3.0,79,0.00,,,0.00,Wunderground v.1.15,2013-01-10 14:10:00,
2013-01-10 08:15:00,34.1,28.3,30.03,ESE,123,3.0,3.0,79,0.00,,,0.00,Wunderground v.1.15,2013-01-10 14:15:00,
2013-01-10 08:20:00,34.3,28.5,30.03,ESE,123,4.0,4.0,79,0.00,,,0.00,Wunderground v.1.15,2013-01-10 14:20:00,
2013-01-10 08:30:00,34.9,28.4,30.03,East,96,5.0,5.0,77,0.00,,,0.00,Wunderground v.1.15,2013-01-10 14:30:00,
2013-01-10 08:40:00,35.3,29.7,30.03,ESE,116,7.0,7.0,80,0.00,,,0.00,Wunderground v.1.15,2013-01-10 14:40:00,
2013-01-10 08:45:00,35.3,30.1,30.02,SE,130,7.0,7.0,81,0.00,,,0.00,Wunderground v.1.15,2013-01-10 14:45:00,
2013-01-10 08:50:00,35.3,30.4,30.02,SE,132,7.0,7.0,82,0.00,,,0.00,Wunderground v.1.15,2013-01-10 14:50:00,
2013-01-10 08:55:00,35.3,30.4,30.02,SE,129,7.0,7.0,82,0.00,,,0.00,Wunderground v.1.15,2013-01-10 14:55:00,
2013-01-10 09:00:00,35.6,31.2,30.02,SE,145,7.0,7.0,84,0.00,,,0.00,Wunderground v.1.15,2013-01-10 15:00:00,
2013-01-10 09:10:00,35.6,31.5,30.02,ESE,122,10.0,11.0,85,0.00,,,0.00,Wunderground v.1.15,2013-01-10 15:10:00,
2013-01-10 09:15:00,35.5,31.4,30.01,ESE,123,9.0,11.0,85,0.00,,,0.00,Wunderground v.1.15,2013-01-10 15:15:00,
2013-01-10 09:20:00,35.3,31.2,30.01,SE,125,8.0,11.0,85,0.00,,,0.00,Wunderground v.1.15,2013-01-10 15:20:00,
2013-01-10 09:25:00,35.3,31.8,30.01,ESE,119,9.0,11.0,87,0.00,,,0.00,Wunderground v.1.15,2013-01-10 15:25:00,
2013-01-10 09:30:00,35.2,31.7,30.00,SE,127,10.0,13.0,87,0.00,,,0.00,Wunderground v.1.15,2013-01-10 15:30:00,
2013-01-10 09:35:00,35.0,31.8,30.00,SE,136,10.0,13.0,88,0.00,,,0.00,Wunderground v.1.15,2013-01-10 15:35:00,
2013-01-10 09:45:00,34.7,31.8,30.00,SE,140,8.0,11.0,89,0.00,,,0.00,Wunderground v.1.15,2013-01-10 15:45:00,
2013-01-10 09:50:00,34.7,31.8,30.00,SE,134,8.0,8.0,89,0.00,,,0.00,Wunderground v.1.15,2013-01-10 15:50:00,
2013-01-10 09:55:00,34.4,31.8,30.00,SE,124,8.0,8.0,90,0.00,,,0.00,Wunderground v.1.15,2013-01-10 15:55:00,
2013-01-10 10:00:00,34.3,32.2,30.00,SE,134,9.0,9.0,92,0.00,,,0.00,Wunderground v.1.15,2013-01-10 16:00:00,
2013-01-10 10:10:00,34.0,32.5,30.00,SE,143,8.0,8.0,94,0.00,,,0.00,Wunderground v.1.15,2013-01-10 16:10:00,
2013-01-10 10:20:00,33.8,32.5,30.00,SE,135,7.0,7.0,95,0.00,,,0.00,Wunderground v.1.15,2013-01-10 16:20:00,
2013-01-10 10:25:00,33.7,32.7,30.00,SE,127,7.0,7.0,96,0.00,,,0.00,Wunderground v.1.15,2013-01-10 16:25:00,
2013-01-10 10:30:00,33.7,32.7,30.00,SE,139,6.0,6.0,96,0.00,,,0.00,Wunderground v.1.15,2013-01-10 16:30:00,
2013-01-10 10:35:00,33.8,32.8,30.00,SSE,151,6.0,6.0,96,0.00,,,0.00,Wunderground v.1.15,2013-01-10 16:35:00,
2013-01-10 10:40:00,33.7,32.7,30.00,SE,135,6.0,6.0,96,0.00,,,0.00,Wunderground v.1.15,2013-01-10 16:40:00,
2013-01-10 10:45:00,33.7,32.9,29.98,SE,135,6.0,6.0,97,0.00,,,0.00,Wunderground v.1.15,2013-01-10 16:45:00,
2013-01-10 10:55:00,33.5,32.7,29.98,SE,141,6.0,6.0,97,0.00,,,0.00,Wunderground v.1.15,2013-01-10 16:55:00,
2013-01-10 11:00:00,33.7,32.9,29.96,SE,140,5.0,5.0,97,0.00,,,0.01,Wunderground v.1.15,2013-01-10 17:00:00,
2013-01-10 11:10:00,33.8,33.3,29.96,SE,131,5.0,5.0,98,0.00,,,0.01,Wunderground v.1.15,2013-01-10 17:10:00,
2013-01-10 11:15:00,33.8,33.3,29.96,SE,135,5.0,5.0,98,0.00,,,0.01,Wunderground v.1.15,2013-01-10 17:15:00,
2013-01-10 11:20:00,33.7,33.2,29.96,SE,143,5.0,5.0,98,0.00,,,0.01,Wunderground v.1.15,2013-01-10 17:20:00,
2013-01-10 11:30:00,33.7,33.2,29.95,SE,139,4.0,6.0,98,0.00,,,0.01,Wunderground v.1.15,2013-01-10 17:30:00,
2013-01-10 11:35:00,33.8,33.3,29.95,SE,131,4.0,6.0,98,0.00,,,0.01,Wunderground v.1.15,2013-01-10 17:35:00,
2013-01-10 11:40:00,33.8,33.3,29.95,SE,131,4.0,4.0,98,0.00,,,0.01,Wunderground v.1.15,2013-01-10 17:40:00,
2013-01-10 11:45:00,33.8,33.3,29.94,SE,132,4.0,4.0,98,0.00,,,0.01,Wunderground v.1.15,2013-01-10 17:45:00,
2013-01-10 11:50:00,33.8,33.3,29.94,SE,135,3.0,4.0,98,0.00,,,0.01,Wunderground v.1.15,2013-01-10 17:50:00,
2013-01-10 11:55:00,33.8,33.3,29.94,SE,135,3.0,5.0,98,0.00,,,0.01,Wunderground v.1.15,2013-01-10 17:55:00,
2013-01-10 12:00:00,33.8,33.3,29.93,SE,138,4.0,4.0,98,0.00,,,0.01,Wunderground v.1.15,2013-01-10 18:00:00,
2013-01-10 12:10:00,33.8,33.5,29.93,SE,138,3.0,3.0,99,0.00,,,0.01,Wunderground v.1.15,2013-01-10 18:10:00,
2013-01-10 12:15:00,34.0,33.7,29.93,SE,138,3.0,3.0,99,0.00,,,0.02,Wunderground v.1.15,2013-01-10 18:15:00,
2013-01-10 12:20:00,34.0,33.7,29.93,SE,138,3.0,3.0,99,0.00,,,0.02,Wunderground v.1.15,2013-01-10 18:20:00,
2013-01-10 12:25:00,34.0,33.7,29.93,SE,138,2.0,3.0,99,0.05,,,0.03,Wunderground v.1.15,2013-01-10 18:25:00,
2013-01-10 12:30:00,34.0,33.7,29.92,SE,138,2.0,2.0,99,0.05,,,0.03,Wunderground v.1.15,2013-01-10 18:30:00,
2013-01-10 12:35:00,34.0,33.7,29.92,SE,138,2.0,3.0,99,0.05,,,0.04,Wunderground v.1.15,2013-01-10 18:35:00,
2013-01-10 12:45:00,33.8,33.5,29.90,SE,138,2.0,2.0,99,0.05,,,0.04,Wunderground v.1.15,2013-01-10 18:45:00,
2013-01-10 12:50:00,34.0,33.7,29.90,SE,138,2.0,2.0,99,0.05,,,0.05,Wunderground v.1.15,2013-01-10 18:50:00,
2013-01-10 12:55:00,34.0,33.7,29.90,SE,138,1.0,2.0,99,0.05,,,0.05,Wunderground v.1.15,2013-01-10 18:55:00,
2013-01-10 13:00:00,34.0,33.7,29.88,SE,138,0.0,0.0,99,0.05,,,0.06,Wunderground v.1.15,2013-01-10 19:00:00,
2013-01-10 13:10:00,34.0,33.7,29.88,SE,138,0.0,0.0,99,0.10,,,0.07,Wunderground v.1.15,2013-01-10 19:10:00,
2013-01-10 13:20:00,33.8,33.5,29.86,SE,136,0.0,0.0,99,0.04,,,0.08,Wunderground v.1.15,2013-01-10 19:20:00,
2013-01-10 13:25:00,33.7,33.4,29.86,SE,130,0.0,0.0,99,0.04,,,0.08,Wunderground v.1.15,2013-01-10 19:25:00,
2013-01-10 13:30:00,33.7,33.4,29.86,ESE,120,0.0,0.0,99,0.06,,,0.09,Wunderground v.1.15,2013-01-10 19:30:00,
2013-01-10 13:35:00,33.7,33.4,29.86,ESE,120,0.0,0.0,99,0.06,,,0.09,Wunderground v.1.15,2013-01-10 19:35:00,
2013-01-10 13:40:00,33.8,33.5,29.86,ESE,120,0.0,0.0,99,0.05,,,0.09,Wunderground v.1.15,2013-01-10 19:40:00,
2013-01-10 13:45:00,34.0,33.7,29.85,ESE,120,0.0,0.0,99,0.04,,,0.09,Wunderground v.1.15,2013-01-10 19:45:00,
2013-01-10 13:55:00,34.6,34.6,29.85,ESE,115,0.0,6.0,100,0.00,,,0.09,Wunderground v.1.15,2013-01-10 19:55:00,
2013-01-10 14:00:00,34.4,34.4,29.85,ESE,115,3.0,4.0,100,0.00,,,0.09,Wunderground v.1.15,2013-01-10 20:00:00,
2013-01-10 14:10:00,34.4,34.1,29.85,ESE,111,5.0,6.0,99,0.00,,,0.09,Wunderground v.1.15,2013-01-10 20:10:00,
2013-01-10 14:15:00,34.4,34.1,29.82,ESE,115,4.0,6.0,99,0.00,,,0.09,Wunderground v.1.15,2013-01-10 20:15:00,
2013-01-10 14:20:00,34.4,34.1,29.82,ESE,116,4.0,5.0,99,0.00,,,0.09,Wunderground v.1.15,2013-01-10 20:20:00,
2013-01-10 14:30:00,34.3,34.0,29.83,ESE,117,5.0,5.0,99,0.00,,,0.09,Wunderground v.1.15,2013-01-10 20:30:00,
2013-01-10 14:40:00,34.0,33.7,29.83,ESE,117,5.0,5.0,99,0.00,,,0.09,Wunderground v.1.15,2013-01-10 20:40:00,
2013-01-10 14:45:00,34.0,34.0,29.81,ESE,121,5.0,5.0,100,0.00,,,0.09,Wunderground v.1.15,2013-01-10 20:45:00,
2013-01-10 14:50:00,33.8,33.8,29.81,ESE,113,5.0,5.0,100,0.00,,,0.09,Wunderground v.1.15,2013-01-10 20:50:00,
2013-01-10 14:55:00,33.8,33.8,29.81,ESE,115,5.0,6.0,100,0.00,,,0.09,Wunderground v.1.15,2013-01-10 20:55:00,
2013-01-10 15:00:00,33.8,33.8,29.80,ESE,119,6.0,6.0,100,0.00,,,0.09,Wunderground v.1.15,2013-01-10 21:00:00,
2013-01-10 15:10:00,33.8,33.8,29.80,ESE,122,6.0,6.0,100,0.00,,,0.09,Wunderground v.1.15,2013-01-10 21:10:00,
2013-01-10 15:15:00,33.8,33.8,29.79,ESE,122,6.0,6.0,100,0.00,,,0.09,Wunderground v.1.15,2013-01-10 21:15:00,
2013-01-10 15:20:00,33.8,33.8,29.79,SE,129,5.0,5.0,100,0.00,,,0.09,Wunderground v.1.15,2013-01-10 21:20:00,
2013-01-10 15:25:00,34.0,34.0,29.79,SE,143,5.0,5.0,100,0.00,,,0.09,Wunderground v.1.15,2013-01-10 21:25:00,
2013-01-10 15:30:00,34.0,34.0,29.79,SE,142,5.0,5.0,100,0.00,,,0.09,Wunderground v.1.15,2013-01-10 21:30:00,
2013-01-10 15:35:00,34.0,34.0,29.79,SE,144,5.0,5.0,100,0.00,,,0.09,Wunderground v.1.15,2013-01-10 21:35:00,
2013-01-10 15:45:00,34.0,34.0,29.78,SE,136,5.0,5.0,100,0.00,,,0.09,Wunderground v.1.15,2013-01-10 21:45:00,
2013-01-10 15:50:00,33.8,33.8,29.78,SE,137,5.0,5.0,100,0.00,,,0.09,Wunderground v.1.15,2013-01-10 21:50:00,
2013-01-10 15:55:00,33.8,33.8,29.78,SE,132,5.0,5.0,100,0.00,,,0.09,Wunderground v.1.15,2013-01-10 21:55:00,
2013-01-10 16:00:00,33.8,33.8,29.77,SE,141,5.0,5.0,100,0.00,,,0.09,Wunderground v.1.15,2013-01-10 22:00:00,
2013-01-10 16:10:00,33.8,33.8,29.77,SE,136,5.0,5.0,100,0.00,,,0.09,Wunderground v.1.15,2013-01-10 22:10:00,
2013-01-10 16:15:00,33.8,33.8,29.76,SSE,148,5.0,6.0,100,0.00,,,0.09,Wunderground v.1.15,2013-01-10 22:15:00,
2013-01-10 16:20:00,33.8,33.8,29.76,SE,144,5.0,5.0,100,0.00,,,0.09,Wunderground v.1.15,2013-01-10 22:20:00,
2013-01-10 16:30:00,33.8,33.8,29.77,SSE,149,6.0,6.0,100,0.00,,,0.09,Wunderground v.1.15,2013-01-10 22:30:00,
2013-01-10 16:35:00,33.8,33.8,29.77,SE,139,6.0,6.0,100,0.00,,,0.09,Wunderground v.1.15,2013-01-10 22:35:00,
2013-01-10 16:40:00,33.7,33.7,29.77,SSE,149,5.0,7.0,100,0.00,,,0.09,Wunderground v.1.15,2013-01-10 22:40:00,
2013-01-10 16:45:00,33.7,33.7,29.76,SE,137,6.0,7.0,100,0.00,,,0.09,Wunderground v.1.15,2013-01-10 22:45:00,
2013-01-10 16:55:00,33.7,33.7,29.76,SSE,167,6.0,9.0,100,0.00,,,0.09,Wunderground v.1.15,2013-01-10 22:55:00,
2013-01-10 17:00:00,33.7,33.7,29.76,SSE,153,6.0,6.0,100,0.00,,,0.09,Wunderground v.1.15,2013-01-10 23:00:00,
2013-01-10 17:10:00,33.5,33.5,29.76,SSE,155,5.0,5.0,100,0.00,,,0.09,Wunderground v.1.15,2013-01-10 23:10:00,
2013-01-10 17:15:00,33.5,33.5,29.74,SSE,155,4.0,5.0,100,0.00,,,0.09,Wunderground v.1.15,2013-01-10 23:15:00,
2013-01-10 17:20:00,33.5,33.5,29.74,SSE,161,4.0,6.0,100,0.00,,,0.09,Wunderground v.1.15,2013-01-10 23:20:00,
2013-01-10 17:25:00,33.4,33.4,29.74,SSE,160,5.0,6.0,100,0.00,,,0.09,Wunderground v.1.15,2013-01-10 23:25:00,
2013-01-10 17:30:00,33.4,33.4,29.75,SSE,160,5.0,5.0,100,0.00,,,0.09,Wunderground v.1.15,2013-01-10 23:30:00,
2013-01-10 17:40:00,33.4,33.4,29.75,SSE,150,4.0,4.0,100,0.00,,,0.09,Wunderground v.1.15,2013-01-10 23:40:00,
2013-01-10 17:45:00,33.4,33.4,29.74,SSE,155,4.0,4.0,100,0.00,,,0.09,Wunderground v.1.15,2013-01-10 23:45:00,
2013-01-10 17:50:00,33.2,33.2,29.74,SSE,157,4.0,4.0,100,0.00,,,0.09,Wunderground v.1.15,2013-01-10 23:50:00,
2013-01-10 17:55:00,33.2,33.2,29.74,South,170,4.0,5.0,100,0.00,,,0.09,Wunderground v.1.15,2013-01-10 23:55:00,
2013-01-10 18:00:00,33.2,33.2,29.74,SSE,166,4.0,4.0,100,0.00,,,0.09,Wunderground v.1.15,2013-01-11 00:00:00,
2013-01-10 18:10:00,33.2,33.2,29.74,SSE,166,3.0,3.0,100,0.00,,,0.09,Wunderground v.1.15,2013-01-11 00:10:00,
2013-01-10 18:15:00,33.2,33.2,29.74,SSE,166,3.0,4.0,100,0.00,,,0.09,Wunderground v.1.15,2013-01-11 00:15:00,
2013-01-10 18:20:00,33.1,33.1,29.74,SSE,166,3.0,4.0,100,0.00,,,0.09,Wunderground v.1.15,2013-01-11 00:20:00,
2013-01-10 18:25:00,33.1,33.1,29.74,SSE,166,3.0,4.0,100,0.00,,,0.09,Wunderground v.1.15,2013-01-11 00:25:00,
2013-01-10 18:30:00,33.1,33.1,29.74,SSE,165,3.0,4.0,100,0.00,,,0.09,Wunderground v.1.15,2013-01-11 00:30:00,
2013-01-10 18:40:00,33.1,33.1,29.74,SSE,167,3.0,4.0,100,0.00,,,0.09,Wunderground v.1.15,2013-01-11 00:40:00,
2013-01-10 18:50:00,33.1,33.1,29.74,SSE,159,4.0,6.0,100,0.00,,,0.09,Wunderground v.1.15,2013-01-11 00:50:00,
2013-01-10 18:55:00,33.1,33.1,29.74,SSE,150,4.0,6.0,100,0.00,,,0.09,Wunderground v.1.15,2013-01-11 00:55:00,
2013-01-10 19:00:00,33.2,33.2,29.72,SE,128,5.0,5.0,100,0.00,,,0.09,Wunderground v.1.15,2013-01-11 01:00:00,
2013-01-10 19:10:00,33.4,33.4,29.72,SE,126,4.0,5.0,100,0.00,,,0.09,Wunderground v.1.15,2013-01-11 01:10:00,
2013-01-10 19:15:00,33.5,33.5,29.70,ESE,120,5.0,6.0,100,0.00,,,0.09,Wunderground v.1.15,2013-01-11 01:15:00,
2013-01-10 19:25:00,33.4,33.4,29.70,ESE,103,7.0,12.0,100,0.00,,,0.09,Wunderground v.1.15,2013-01-11 01:25:00,
2013-01-10 19:30:00,33.4,33.4,29.69,ESE,113,8.0,13.0,100,0.00,,,0.09,Wunderground v.1.15,2013-01-11 01:30:00,
2013-01-10 19:35:00,33.5,33.5,29.69,SE,143,7.0,13.0,100,0.00,,,0.09,Wunderground v.1.15,2013-01-11 01:35:00,
2013-01-10 19:40:00,33.5,33.5,29.69,SE,136,5.0,5.0,100,0.00,,,0.09,Wunderground v.1.15,2013-01-11 01:40:00,
2013-01-10 19:45:00,33.5,33.5,29.72,SSE,167,5.0,9.0,100,0.00,,,0.09,Wunderground v.1.15,2013-01-11 01:45:00,
2013-01-10 19:55:00,33.7,33.7,29.72,SSE,164,5.0,6.0,100,0.00,,,0.09,Wunderground v.1.15,2013-01-11 01:55:00,
2013-01-10 20:00:00,33.8,33.8,29.71,SSE,150,5.0,6.0,100,0.00,,,0.09,Wunderground v.1.15,2013-01-11 02:00:00,
2013-01-10 20:10:00,33.8,33.8,29.71,SE,139,6.0,6.0,100,0.00,,,0.09,Wunderground v.1.15,2013-01-11 02:10:00,
2013-01-10 20:15:00,33.8,33.8,29.69,SE,130,5.0,6.0,100,0.00,,,0.09,Wunderground v.1.15,2013-01-11 02:15:00,
2013-01-10 20:20:00,33.8,33.8,29.69,ESE,123,5.0,5.0,100,0.00,,,0.09,Wunderground v.1.15,2013-01-11 02:20:00,
2013-01-10 20:25:00,33.8,33.8,29.69,SE,140,5.0,5.0,100,0.00,,,0.09,Wunderground v.1.15,2013-01-11 02:25:00,
2013-01-10 20:30:00,33.8,33.8,29.69,SSE,155,5.0,5.0,100,0.00,,,0.09,Wunderground v.1.15,2013-01-11 02:30:00,
2013-01-10 20:35:00,33.8,33.8,29.69,SSE,157,5.0,5.0,100,0.00,,,0.09,Wunderground v.1.15,2013-01-11 02:35:00,
2013-01-10 20:45:00,33.8,33.8,29.68,SSE,155,5.0,5.0,100,0.00,,,0.09,Wunderground v.1.15,2013-01-11 02:45:00,
2013-01-10 20:50:00,33.8,33.8,29.68,SSE,155,5.0,5.0,100,0.00,,,0.09,Wunderground v.1.15,2013-01-11 02:50:00,
2013-01-10 20:55:00,34.0,34.0,29.68,SSE,152,4.0,5.0,100,0.00,,,0.09,Wunderground v.1.15,2013-01-11 02:55:00,
2013-01-10 21:00:00,33.8,33.8,29.67,SSE,152,4.0,4.0,100,0.00,,,0.09,Wunderground v.1.15,2013-01-11 03:00:00,
2013-01-10 21:10:00,33.8,33.8,29.67,SSE,155,4.0,4.0,100,0.00,,,0.09,Wunderground v.1.15,2013-01-11 03:10:00,
2013-01-10 21:15:00,34.0,34.0,29.67,SSE,148,4.0,4.0,100,0.00,,,0.09,Wunderground v.1.15,2013-01-11 03:15:00,
2013-01-10 21:20:00,34.0,34.0,29.67,SSE,156,4.0,4.0,100,0.00,,,0.09,Wunderground v.1.15,2013-01-11 03:20:00,
2013-01-10 21:25:00,34.0,34.0,29.67,SSE,158,4.0,4.0,100,0.00,,,0.09,Wunderground v.1.15,2013-01-11 03:25:00,
2013-01-10 21:30:00,34.1,34.1,29.67,SSE,168,4.0,5.0,100,0.00,,,0.09,Wunderground v.1.15,2013-01-11 03:30:00,
2013-01-10 21:35:00,34.1,34.1,29.67,SSE,155,4.0,5.0,100,0.00,,,0.09,Wunderground v.1.15,2013-01-11 03:35:00,
2013-01-10 21:45:00,34.1,34.1,29.66,SSE,157,4.0,4.0,100,0.00,,,0.09,Wunderground v.1.15,2013-01-11 03:45:00,
2013-01-10 21:50:00,34.1,34.1,29.66,SSE,161,4.0,6.0,100,0.00,,,0.09,Wunderground v.1.15,2013-01-11 03:50:00,
2013-01-10 22:00:00,34.1,34.1,29.66,SSE,167,4.0,4.0,100,0.00,,,0.09,Wunderground v.1.15,2013-01-11 04:00:00,
2013-01-10 22:10:00,34.1,34.1,29.66,South,169,4.0,4.0,100,0.00,,,0.09,Wunderground v.1.15,2013-01-11 04:10:00,
2013-01-10 22:15:00,34.1,34.1,29.64,SSE,162,4.0,4.0,100,0.00,,,0.09,Wunderground v.1.15,2013-01-11 04:15:00,
2013-01-10 22:20:00,34.0,34.0,29.64,SSE,162,3.0,5.0,100,0.00,,,0.09,Wunderground v.1.15,2013-01-11 04:20:00,
2013-01-10 22:25:00,34.0,34.0,29.64,SSE,162,4.0,5.0,100,0.00,,,0.09,Wunderground v.1.15,2013-01-11 04:25:00,
2013-01-10 22:30:00,34.1,34.1,29.64,SSE,155,4.0,4.0,100,0.00,,,0.09,Wunderground v.1.15,2013-01-11 04:30:00,
2013-01-10 22:35:00,34.3,34.3,29.64,SSE,151,4.0,4.0,100,0.00,,,0.09,Wunderground v.1.15,2013-01-11 04:35:00,
2013-01-10 22:40:00,34.1,34.1,29.64,SE,143,4.0,4.0,100,0.00,,,0.09,Wunderground v.1.15,2013-01-11 04:40:00,
2013-01-10 22:50:00,34.3,34.3,29.62,SE,131,5.0,5.0,100,0.00,,,0.09,Wunderground v.1.15,2013-01-11 04:50:00,
2013-01-10 22:55:00,34.4,34.4,29.62,SE,132,5.0,6.0,100,0.00,,,0.09,Wunderground v.1.15,2013-01-11 04:55:00,
2013-01-10 23:00:00,34.3,34.3,29.62,SE,141,5.0,5.0,100,0.00,,,0.09,Wunderground v.1.15,2013-01-11 05:00:00,
2013-01-10 23:10:00,34.3,34.3,29.62,SE,143,4.0,4.0,100,0.00,,,0.09,Wunderground v.1.15,2013-01-11 05:10:00,
2013-01-10 23:15:00,34.4,34.4,29.62,SE,145,3.0,4.0,100,0.00,,,0.09,Wunderground v.1.15,2013-01-11 05:15:00,
2013-01-10 23:20:00,34.4,34.4,29.62,SE,145,3.0,3.0,100,0.00,,,0.09,Wunderground v.1.15,2013-01-11 05:20:00,
2013-01-10 23:25:00,34.3,34.3,29.62,SE,146,2.0,4.0,100,0.00,,,0.09,Wunderground v.1.15,2013-01-11 05:25:00,
2013-01-10 23:30:00,34.3,34.3,29.62,SSE,150,2.0,3.0,100,0.00,,,0.09,Wunderground v.1.15,2013-01-11 05:30:00,
2013-01-10 23:35:00,34.7,34.7,29.62,SSE,161,4.0,5.0,100,0.00,,,0.09,Wunderground v.1.15,2013-01-11 05:35:00,
2013-01-10 23:40:00,34.7,34.7,29.62,SSE,151,4.0,4.0,100,0.00,,,0.09,Wunderground v.1.15,2013-01-11 05:40:00,
2013-01-10 23:50:00,34.4,34.4,29.61,SSE,162,4.0,5.0,100,0.00,,,0.09,Wunderground v.1.15,2013-01-11 05:50:00,
2013-01-10 23:55:00,34.3,34.3,29.61,South,174,5.0,5.0,100,0.00,,,0.09,Wunderground v.1.15,2013-01-11 05:55:00,